Temperature
22 22 22 23 23 22 21 20 20 20 19 19 19 18 18 18 17 17 17 17 17 17 17 17 17 17 17 17 17 16 16 15 15 15 14 14 14 14 14 14 14 14 15
22 22 23 22 22 21 20 19 19 19 19 19 19 18 18 17 17 17 17 17 17 17 17 17 17 17 17 17 17 17 16 16 15 15 15 14 13 13 13 14 14 14 14
22 22 22 21 21 21 20 19 19 18 18 18 18 18 17 17 17 17 17 17 17 17 17 17 17 17 17 17 17 17 17 17 16 15 15 15 14 14 13 13 14 14 14
22 22 21 21 21 20 20 19 18 18 18 18 17 17 17 17 17 17 17 17 17 17 16 16 17 17 17 17 17 17 17 17 16 15 15 16 16 15 14 13 13 14 14
21 21 21 20 20 20 19 19 18 17 17 17 17 17 16 16 16 16 16 16 16 16 16 16 16 16 17 17 17 17 17 17 16 16 15 15 15 15 15 14 14 14 14
21 21 21 20 20 20 19 19 18 17 17 17 16 16 16 16 15 15 15 15 15 16 16 16 16 16 16 16 17 17 17 16 16 16 16 16 16 16 16 16 15 15 14
22 21 21 21 21 20 19 19 18 17 17 16 16 16 15 15 15 15 15 15 15 15 15 15 15 15 15 16 16 16 16 16 16 16 16 16 16 16 16 16 16 15 15
22 22 22 22 21 20 19 18 18 17 16 16 15 15 15 15 15 15 15 15 15 15 15 14 14 14 14 15 15 16 16 16 16 16 16 15 15 15 15 15 15 15 15
23 23 22 22 21 20 19 18 17 17 16 16 15 15 15 15 15 15 15 14 14 14 14 14 14 14 14 14 15 15 15 16 16 16 16 16 16 15 15 15 15 15 15
23 23 23 22 21 20 19 18 17 17 17 16 15 15 15 15 15 15 15 14 14 14 14 14 14 14 14 14 14 15 15 15 16 16 15 16 15 15 15 15 15 15 15
23 23 23 22 21 20 19 18 17 17 17 16 16 15 15 15 15 15 15 15 15 15 14 14 14 14 14 14 14 15 15 15 16 16 15 15 15 15 15 15 15 15 15
22 22 22 22 21 20 19 18 17 17 17 16 16 15 15 15 15 15 15 15 15 15 15 15 14 14 14 14 14 15 15 15 15 15 15 15 15 15 15 15 15 15 15
23 22 22 22 21 21 20 19 18 17 17 16 16 16 15 15 15 15 15 14 14 15 15 14 14 14 14 14 14 14 15 15 15 15 15 15 15 15 15 15 15 15 15
23 23 22 22 22 21 20 19 18 18 17 16 16 16 16 15 15 15 15 14 14 14 14 14 14 14 14 14 14 14 14 15 15 15 15 15 15 15 15 15 15 15 14
22 23 23 22 22 21 20 19 19 18 17 17 17 17 16 16 15 15 15 14 14 14 14 14 14 14 14 14 14 14 14 14 15 15 15 15 15 15 15 15 15 14 14
22 22 22 22 22 21 21 20 19 18 18 17 17 17 16 16 16 16 15 15 15 15 15 15 14 14 15 15 15 14 14 14 15 15 15 15 15 15 15 15 14 14 14
22 21 21 22 22 21 20 20 19 18 18 18 17 17 16 16 16 16 15 15 15 15 15 15 15 15 15 15 15 14 14 14 14 15 15 14 14 15 15 14 14 14 14
22 22 21 21 21 20 19 19 18 18 18 17 17 17 17 16 16 16 15 15 15 15 15 15 14 14 14 14 15 14 14 14 14 14 14 14 14 14 14 14 14 14 14
21 21 20 20 20 19 18 18 18 18 17 17 17 17 17 16 16 16 15 15 15 15 14 14 14 14 14 14 14 14 14 14 14 14 14 14 14 14 14 14 14 14 15
20 19 19 19 18 17 17 17 16 16 16 16 16 16 16 16 16 16 15 15 15 14 14 13 13 14 14 14 13 13 13 13 14 14 14 14 14 14 14 14 14 14 14
18 18 18 17 17 16 15 15 15 14 14 14 14 15 15 15 16 15 15 15 14 14 13 13 13 13 13 13 13 13 13 13 13 14 14 14 14 13 14 14 13 13 13
17 17 16 16 15 14 14 14 13 13 13 13 13 13 13 14 14 14 14 14 14 13 13 13 13 12 12 12 12 12 12 13 13 13 13 13 13 13 13 13 13 12 12
16 16 15 15 14 13 13 13 12 12 12 12 12 12 12 12 12 13 13 13 13 13 12 12 12 12 12 12 12 12 12 12 12 13 13 13 13 13 13 12 12 12 12
16 15 14 14 13 13 13 12 12 12 11 11 11 11 11 11 11 10 11 11 12 12 12 12 12 12 12 12 12 12 12 12 12 12 12 12 12 12 12 12 12 11 11
15 15 14 14 13 13 13 13 12 12 11 11 11 11 11 11 10 10 11 11 11 12 12 11 11 11 11 11 11 11 11 11 11 11 11 11 11 11 11 11 11 11 11
16 15 14 14 14 13 13 13 12 12 11 11 11 10 10 10 11 11 11 11 11 11 11 11 11 11 11 11 11 11 11 11 11 11 11 11 10 10 10 11 10 10 10
Wind_Speed
1 3 5 4 1 2 4 5 6 5 6 4 4 4 4 4 4 4 6 9 11 12 10 6 7 7 8 9 8 5 5 4 4 5 4 4 5 6 4 3 5 8 11
1 4 5 4 1 3 4 5 5 6 6 4 3 3 3 2 3 2 3 8 10 11 10 9 8 9 7 8 8 7 5 3 4 4 4 2 3 4 5 4 4 5 7
7 5 3 2 1 3 5 5 5 6 6 5 4 3 3 3 2 3 4 6 9 10 9 8 9 9 9 10 10 10 8 6 3 2 4 4 4 1 3 4 4 4 4
7 6 6 5 4 3 3 5 6 6 6 7 6 5 5 4 4 4 4 5 6 7 7 7 8 10 9 10 12 10 6 9 6 2 2 3 4 4 2 2 2 3 3
9 8 8 7 5 4 5 5 6 6 6 6 7 5 4 3 3 4 6 5 5 5 5 5 5 8 7 8 9 8 6 6 6 5 3 3 3 3 4 2 1 1 1
8 8 7 6 4 3 3 4 4 4 5 5 5 5 6 5 5 5 7 6 5 6 7 7 4 4 5 7 8 7 8 6 6 5 4 4 4 4 4 4 3 3 2
9 9 9 9 8 7 5 4 3 3 4 6 6 6 7 7 7 6 8 8 7 6 8 7 5 3 4 5 6 6 6 6 7 7 5 4 4 4 4 4 3 2 1
10 11 11 10 8 7 6 5 5 3 4 5 5 5 6 5 4 5 6 7 6 6 9 8 5 3 5 6 6 5 5 6 7 7 7 5 5 4 4 5 5 4 2
12 12 10 9 8 8 8 7 6 5 5 5 5 5 6 6 6 6 6 5 6 7 9 9 7 4 5 6 7 6 6 6 6 6 7 6 6 6 5 5 6 7 5
10 10 8 8 8 8 7 7 6 6 4 4 4 4 5 6 5 6 7 6 6 6 8 8 7 6 6 6 5 4 4 6 6 5 7 7 5 6 6 6 6 6 7
10 9 8 7 7 7 8 8 7 6 5 5 4 3 4 5 5 5 6 6 6 7 8 9 8 8 8 7 5 4 4 5 5 5 6 8 7 6 7 6 6 6 5
9 8 7 7 7 8 8 8 8 7 7 6 6 5 5 6 6 6 6 6 6 7 7 8 7 7 6 6 6 6 7 7 7 7 8 9 7 8 7 7 8 7 6
9 8 8 9 9 9 8 8 8 8 7 7 7 7 7 8 8 8 7 5 4 4 4 6 7 6 6 6 7 8 8 8 9 9 9 10 9 10 8 8 9 8 7
8 8 9 9 9 8 8 8 8 7 6 6 6 7 8 9 9 9 8 7 6 5 5 5 5 6 6 7 7 7 8 8 9 9 10 10 11 12 11 10 9 8 8
8 9 10 9 8 8 8 8 7 7 7 7 7 8 7 7 8 8 9 8 8 8 7 6 6 5 5 6 7 7 8 9 9 9 10 11 13 15 12 9 10 11 10
9 8 9 9 9 8 8 8 8 7 7 8 9 7 6 7 7 8 8 8 9 8 7 7 6 5 4 5 6 7 7 8 9 9 8 8 11 14 17 17 16 17 14
7 6 7 7 7 7 7 9 8 6 7 8 8 7 7 7 7 7 8 9 9 8 7 7 6 5 5 6 6 6 5 7 7 7 5 5 6 9 8 13 16 18 21
4 6 6 5 3 2 4 6 5 6 8 8 8 8 8 8 7 8 8 8 7 7 6 6 5 4 5 5 5 6 4 5 6 6 6 5 4 4 7 7 9 11 14
4 6 7 7 6 5 3 2 2 4 5 7 8 8 7 7 7 8 8 7 6 5 4 4 5 4 4 4 4 2 2 3 4 4 5 5 4 4 6 6 7 9 9
9 8 8 9 9 7 7 8 5 2 2 4 6 6 7 8 8 8 6 5 5 6 6 4 3 4 4 4 3 4 2 2 2 3 4 8 7 6 6 4 5 7 6
8 8 9 8 6 5 7 8 6 4 3 4 3 2 4 6 7 5 6 7 7 7 6 5 2 3 4 4 4 6 4 4 4 3 3 3 7 7 7 6 4 3 4
7 7 8 7 5 5 7 7 4 3 4 4 4 3 1 1 2 4 5 7 7 6 5 3 1 1 2 3 4 7 7 6 5 4 3 3 4 5 4 4 4 4 5
6 5 7 6 4 4 4 3 1 3 4 4 4 3 3 3 3 4 4 3 4 4 4 2 1 2 2 2 4 5 8 8 4 3 4 3 3 3 3 3 3 4 4
5 5 6 5 2 1 0 1 1 1 3 3 2 2 3 4 4 3 3 2 3 3 3 2 2 2 2 2 2 1 4 6 4 4 5 5 5 3 2 2 2 3 4
4 4 5 4 3 2 3 3 3 3 3 3 2 3 3 4 4 4 2 2 2 2 3 2 2 3 4 4 5 5 4 5 5 6 4 3 2 1 0 0 1 1 2
5 4 4 3 3 2 3 2 4 4 4 3 2 2 2 3 4 4 5 8 6 6 4 1 2 2 4 4 4 7 8 11 12 6 3 3 3 3 3 3 3 3 4
Wind_Direction
288 353 2 349 285 184 179 172 156 136 138 146 168 185 208 206 195 207 211 192 187 189 187 186 169 171 179 175 156 136 130 124 127 100 81 50 57 61 49 59 84 80 77
251 315 343 359 242 195 182 164 152 147 158 156 150 165 161 176 173 177 215 209 195 192 195 185 179 177 174 164 162 147 138 142 158 131 115 86 34 36 38 40 59 62 64
201 229 268 286 211 200 193 179 157 150 154 145 122 106 96 96 139 180 199 215 202 194 188 181 177 176 176 178 176 167 156 157 173 149 142 149 179 107 34 40 46 50 48
197 208 223 233 217 190 159 160 160 158 159 157 167 170 171 179 184 178 185 195 201 197 189 179 177 180 183 181 183 175 166 155 159 132 96 126 143 140 109 20 28 61 58
194 200 211 222 219 181 162 164 164 164 166 169 168 163 165 171 162 159 159 157 163 160 153 156 172 186 185 177 177 168 161 154 158 154 142 111 83 107 133 158 221 350 49
200 209 214 216 223 207 181 164 160 155 152 163 167 180 188 188 181 174 165 160 152 140 130 124 142 171 177 175 178 166 162 160 160 159 161 161 155 163 147 148 167 204 221
201 210 210 207 211 209 204 189 180 170 155 167 184 197 198 197 198 184 174 167 161 150 135 123 121 141 167 172 168 170 178 174 174 179 184 177 167 152 141 134 141 159 206
208 212 211 206 204 204 202 201 204 197 173 185 195 195 199 201 201 184 172 171 162 148 141 134 136 158 174 178 172 173 186 188 193 191 187 184 188 167 157 150 143 143 184
216 218 213 204 196 197 203 205 210 208 188 193 190 184 194 199 197 181 171 166 156 150 148 148 156 175 189 187 174 173 178 181 196 202 200 201 196 187 182 166 163 162 184
233 232 220 208 197 194 195 196 205 213 201 195 196 185 195 199 189 174 177 176 168 158 161 165 171 180 194 200 195 179 172 180 195 196 200 209 203 197 195 192 187 180 183
242 238 227 208 197 187 184 188 194 197 192 195 205 192 196 198 186 183 188 181 173 170 175 182 185 190 195 201 204 205 214 215 216 204 206 217 200 196 197 193 185 180 162
252 239 220 196 194 195 191 188 190 197 194 185 195 203 189 187 186 186 186 179 177 181 181 182 190 195 194 194 203 217 222 225 233 232 222 224 210 206 197 193 193 188 172
255 226 198 193 198 200 196 194 197 205 197 179 190 201 194 190 193 192 188 184 181 187 183 180 187 188 190 199 209 214 220 222 228 229 227 226 206 210 203 199 197 191 184
256 220 201 198 198 197 196 200 209 206 195 188 199 207 204 201 197 192 188 185 181 185 188 190 196 203 205 206 209 214 223 229 232 227 224 222 212 212 203 201 195 180 175
257 219 201 198 196 195 198 203 211 202 191 197 216 225 210 198 192 190 190 187 188 194 191 199 216 222 216 210 206 211 220 227 230 225 220 218 217 217 206 198 189 179 180
261 224 196 187 193 198 201 204 209 200 191 207 222 227 207 194 192 188 182 184 193 196 192 203 215 227 231 240 234 218 218 223 223 226 223 217 221 223 215 208 195 186 184
262 210 187 186 188 192 197 212 215 189 195 217 225 216 203 199 197 186 179 187 191 190 195 200 203 226 253 270 277 273 237 225 220 215 209 217 211 209 208 214 207 200 201
228 177 155 138 133 163 203 219 214 199 204 217 227 222 211 210 199 191 195 195 188 191 192 194 197 217 257 278 302 308 248 223 215 200 193 208 220 199 201 202 200 200 208
116 107 104 103 90 72 76 138 196 217 223 230 235 235 226 221 206 203 203 193 181 178 169 177 187 204 257 289 296 264 210 228 222 199 186 182 179 184 188 189 197 202 212
95 98 97 91 80 66 76 80 75 78 281 271 256 245 235 229 221 204 184 177 171 165 157 159 175 206 242 270 261 180 171 190 174 171 179 176 167 164 147 152 183 207 207
90 89 87 84 85 90 88 81 71 53 0 340 327 278 240 232 227 196 165 161 160 155 150 145 163 221 244 268 249 191 176 174 165 176 191 188 162 153 157 152 159 203 181
89 89 94 89 74 70 83 79 52 17 25 38 40 31 10 253 205 165 151 154 155 145 132 118 89 258 263 261 255 216 199 180 170 186 195 197 170 152 148 150 170 192 167
108 103 107 96 67 52 83 105 359 6 36 48 47 47 47 40 74 115 127 133 139 134 132 131 175 283 279 276 280 246 204 184 165 171 176 174 158 133 124 132 143 147 152
126 123 119 120 131 157 153 222 253 69 57 45 35 49 69 67 63 78 116 147 174 160 146 156 219 262 275 261 256 225 165 157 120 103 102 91 90 81 78 83 107 148 171
142 139 144 160 190 224 252 239 195 152 106 75 53 46 67 93 91 81 83 158 174 162 153 191 213 228 254 245 205 172 156 149 137 117 92 86 93 120 176 235 238 223 221
153 156 177 203 230 251 280 239 181 157 133 108 74 60 81 97 108 106 89 61 65 65 81 126 185 229 257 285 216 185 162 150 146 126 142 165 180 201 211 217 224 226 226
Height
1482 1484 1486 1486 1486 1486 1486 1487 1491 1495 1499 1501 1503 1505 1507 1510 1512 1514 1517 1519 1521 1524 1527 1530 1533 1535 1537 1539 1542 1545 1548 1550 1551 1553 1555 1556 1557 1557 1557 1557 1557 1557 1556
1482 1484 1484 1484 1483 1483 1484 1485 1488 1492 1495 1498 1500 1502 1504 1507 1509 1510 1512 1515 1517 1520 1523 1526 1529 1531 1534 1536 1539 1542 1545 1547 1550 1551 1553 1555 1557 1557 1557 1557 1558 1557 1557
1481 1482 1482 1482 1482 1482 1482 1484 1487 1489 1492 1495 1497 1499 1500 1502 1505 1506 1507 1510 1512 1515 1518 1521 1525 1528 1530 1533 1536 1539 1542 1544 1547 1549 1551 1552 1553 1555 1557 1557 1558 1558 1558
1479 1480 1480 1481 1481 1481 1481 1483 1484 1486 1489 1492 1494 1495 1497 1498 1500 1501 1503 1505 1508 1510 1513 1516 1520 1523 1527 1530 1533 1536 1539 1542 1544 1547 1549 1551 1551 1553 1554 1556 1557 1557 1558
1478 1479 1479 1480 1480 1481 1480 1481 1482 1484 1486 1488 1490 1492 1493 1494 1495 1496 1497 1499 1502 1504 1507 1510 1514 1519 1523 1526 1529 1532 1535 1539 1542 1544 1546 1548 1549 1551 1553 1554 1555 1556 1557
1476 1477 1477 1478 1479 1480 1480 1481 1482 1482 1483 1485 1487 1488 1489 1489 1490 1491 1492 1493 1496 1499 1502 1505 1509 1514 1518 1522 1525 1529 1532 1536 1539 1542 1544 1545 1547 1549 1550 1552 1553 1554 1556
1473 1474 1475 1476 1478 1479 1480 1481 1481 1481 1482 1483 1484 1485 1485 1486 1487 1488 1489 1490 1492 1494 1497 1500 1504 1508 1514 1518 1522 1526 1529 1533 1536 1539 1541 1543 1545 1547 1549 1550 1551 1553 1554
1470 1471 1473 1474 1476 1477 1479 1479 1480 1480 1481 1482 1483 1483 1483 1484 1485 1486 1487 1488 1489 1491 1493 1496 1500 1505 1510 1515 1519 1522 1526 1530 1533 1535 1537 1539 1541 1544 1546 1548 1550 1550 1552
1467 1469 1470 1472 1474 1475 1477 1478 1478 1479 1479 1480 1482 1482 1483 1483 1484 1485 1486 1487 1488 1489 1491 1493 1497 1502 1507 1512 1516 1520 1524 1527 1530 1532 1534 1535 1537 1539 1542 1544 1546 1548 1549
1465 1466 1468 1469 1471 1473 1475 1476 1477 1477 1478 1479 1480 1481 1482 1483 1484 1484 1486 1487 1489 1490 1492 1495 1499 1503 1506 1509 1514 1518 1521 1524 1526 1528 1530 1532 1534 1535 1537 1539 1542 1544 1546
1462 1463 1465 1467 1469 1471 1472 1473 1474 1476 1477 1478 1479 1480 1482 1483 1483 1484 1486 1488 1490 1491 1493 1496 1499 1503 1506 1509 1512 1515 1518 1520 1523 1524 1526 1527 1529 1531 1533 1535 1537 1539 1541
1460 1461 1462 1464 1466 1468 1469 1471 1472 1474 1476 1477 1478 1479 1480 1481 1483 1484 1486 1488 1490 1493 1494 1497 1500 1503 1506 1509 1511 1513 1515 1517 1518 1520 1521 1522 1524 1526 1528 1530 1532 1534 1537
1454 1454 1456 1459 1462 1464 1467 1469 1470 1472 1474 1475 1476 1477 1478 1479 1480 1482 1484 1487 1490 1492 1494 1497 1499 1502 1504 1506 1508 1509 1511 1512 1513 1514 1515 1516 1518 1520 1522 1525 1527 1529 1532
1449 1448 1449 1453 1458 1461 1464 1466 1467 1469 1471 1473 1473 1474 1475 1476 1478 1479 1482 1484 1487 1490 1492 1495 1497 1499 1501 1502 1504 1505 1506 1507 1508 1509 1510 1511 1512 1514 1517 1519 1521 1524 1526
1445 1444 1445 1449 1454 1457 1460 1463 1465 1467 1468 1470 1470 1471 1473 1474 1475 1477 1478 1480 1483 1486 1489 1491 1493 1496 1497 1499 1499 1500 1501 1502 1503 1503 1504 1505 1506 1508 1511 1513 1515 1517 1520
1441 1441 1443 1447 1451 1454 1457 1460 1462 1464 1465 1467 1468 1469 1470 1471 1473 1474 1476 1478 1480 1483 1485 1487 1489 1491 1492 1493 1494 1494 1495 1495 1496 1497 1499 1500 1501 1503 1505 1507 1510 1512 1513
1437 1438 1440 1445 1449 1452 1454 1457 1459 1461 1462 1463 1465 1466 1467 1468 1470 1472 1474 1475 1477 1479 1481 1484 1485 1486 1487 1488 1489 1489 1490 1490 1491 1492 1494 1496 1497 1499 1501 1503 1505 1506 1508
1435 1436 1439 1443 1447 1449 1451 1453 1455 1456 1457 1459 1461 1462 1463 1465 1466 1468 1470 1471 1473 1475 1477 1480 1481 1482 1483 1484 1484 1485 1485 1486 1487 1488 1489 1492 1494 1496 1498 1499 1501 1503 1505
1433 1435 1439 1443 1445 1447 1449 1450 1451 1451 1452 1453 1455 1457 1459 1460 1461 1463 1465 1466 1468 1470 1472 1475 1477 1479 1480 1480 1481 1482 1482 1483 1484 1484 1486 1488 1490 1492 1494 1495 1497 1499 1501
1435 1437 1440 1443 1445 1447 1448 1449 1448 1448 1448 1448 1449 1451 1452 1453 1455 1457 1459 1461 1463 1465 1467 1470 1472 1475 1476 1477 1478 1479 1479 1480 1480 1481 1483 1484 1486 1488 1490 1491 1493 1495 1497
1438 1441 1443 1444 1446 1447 1448 1448 1448 1448 1447 1446 1446 1446 1446 1447 1449 1451 1453 1455 1457 1460 1463 1466 1468 1471 1473 1474 1475 1476 1477 1477 1478 1479 1480 1481 1483 1484 1486 1488 1489 1491 1493
1441 1443 1444 1445 1446 1448 1449 1449 1449 1448 1447 1446 1445 1444 1444 1444 1444 1446 1448 1451 1453 1457 1460 1462 1465 1467 1469 1470 1471 1473 1474 1475 1476 1476 1478 1479 1480 1481 1483 1485 1486 1488 1491
1442 1444 1445 1446 1448 1449 1450 1450 1450 1450 1448 1447 1445 1444 1443 1443 1443 1443 1445 1448 1451 1454 1457 1460 1462 1464 1466 1467 1469 1470 1471 1472 1473 1474 1475 1477 1478 1479 1481 1483 1484 1486 1488
1444 1445 1446 1448 1449 1451 1451 1451 1451 1450 1449 1447 1446 1445 1444 1444 1443 1444 1445 1448 1451 1454 1456 1458 1460 1461 1462 1464 1466 1467 1469 1470 1472 1473 1474 1475 1476 1478 1479 1480 1482 1484 1485
1445 1446 1447 1449 1450 1451 1451 1451 1451 1450 1449 1448 1447 1446 1446 1445 1445 1445 1446 1448 1451 1453 1455 1456 1458 1458 1459 1461 1463 1464 1466 1468 1470 1471 1472 1474 1475 1475 1476 1477 1478 1480 1482
1446 1447 1448 1450 1451 1451 1451 1450 1450 1450 1449 1448 1448 1447 1446 1446 1447 1447 1448 1450 1452 1453 1455 1456 1456 1457 1458 1459 1460 1462 1464 1466 1467 1469 1470 1471 1472 1473 1474 1475 1476 1477 1478